Weather History for Butte, MT

Change the Weather History Date:

Monday, March 4, 2013

  Actual Average Record
Temperature  
Mean Temperature 20 °F 27 °F  
Max Temperature 26 °F 40 °F 59 °F (1921)
Min Temperature 14 °F 15 °F -25 °F (1989)
Degree Days  
Heating Degree Days 45 38  
Month to date heating degree days 132 154  
Since 1 July heating degree days 6510 6723  
Cooling Degree Days 0 0  
Month to date cooling degree days 0 0  
Year to date cooling degree days 0 0  
Moisture  
Dew Point 9 °F    
Average Humidity 60    
Maximum Humidity 73    
Minimum Humidity 46    
Precipitation  
Precipitation T in 0.02 in 1.20 in (1918)
Month to date precipitation 0.02 0.08  
Year to date precipitation 0.42 0.98  
Sea Level Pressure  
Sea Level Pressure 30.22 in    
Wind  
Wind Speed 7 mph (NNE)    
Max Wind Speed 13 mph    
Max Gust Speed 17 mph    
Visibility 8 miles    
Events Snow    
T = Trace of Precipitation, MM = Missing Value Source: NWS Daily Summary

Daily Weather History Graph

Daily Weather History Graph

Search for Another Location

Airport:

Trip Planner

Search our weather history database for the weather conditions in past years. The results will help you decide how hot, cold, wet, or windy it might be!

Date:

Astronomy

Mar. 04, 2013 Rise Set
Actual Time 7:02 AM MST 6:21 PM MST
Civil Twilight 6:32 AM MST 6:51 PM MST
Nautical Twilight 5:58 AM MST 7:25 PM MST
Astronomical Twilight 5:23 AM MST 8:00 PM MST
Moon 1:29 AM MST (3/4) 10:52 AM MST (3/4)
Length of Visible Light 12h 18m
Length of Day
11h 18m
Waning Gibbous, 51% of the Moon is Illuminated
Mar 4
Waning Gibbous
Mar 4
Last Quarter
Mar 11
New
Mar 19
First Quarter
Mar 27
Full

Hourly Weather History & Observations

Time (MST) Temp. Windchill Dew Point Humidity Pressure Visibility Wind Dir Wind Speed Gust Speed Precip Events Conditions
12:30 AM 21.2 °F 9.5 °F 15.8 °F 80% 29.96 in 2.5 mi North 11.5 mph - 0.00 in Snow Light Snow
12:41 AM 19.4 °F 4.5 °F 15.8 °F 86% 29.96 in 1.0 mi NNE 17.3 mph 23.0 mph 0.00 in Snow Light Snow
12:48 AM 19.4 °F 6.6 °F 14.0 °F 80% 29.97 in 0.8 mi NNE 12.7 mph 23.0 mph 0.00 in Snow Light Snow
12:53 AM 19.0 °F 5.0 °F 14.0 °F 81% 30.11 in 0.8 mi NNE 15.0 mph 21.9 mph 0.00 in Snow Light Snow
1:02 AM 19.4 °F 6.0 °F 14.0 °F 80% 29.98 in 1.2 mi North 13.8 mph 21.9 mph 0.00 in Snow Light Snow
1:21 AM 19.4 °F 10.4 °F 12.2 °F 74% 29.99 in 3.0 mi NNW 6.9 mph - 0.00 in Snow Light Snow
1:40 AM 19.4 °F 8.6 °F 10.4 °F 68% 30.00 in 10.0 mi WNW 9.2 mph - 0.00 in   Overcast
1:53 AM 19.0 °F 8.2 °F 10.0 °F 68% 30.13 in 10.0 mi North 9.2 mph - 0.00 in   Overcast
2:53 AM 19.9 °F 10.1 °F 10.0 °F 65% 30.17 in 10.0 mi NNE 8.1 mph - N/A   Overcast
3:53 AM 18.0 °F 6.1 °F 8.1 °F 65% 30.20 in 10.0 mi North 10.4 mph - 0.00 in   Overcast
4:53 AM 17.6 °F 12.3 °F 8.6 °F 68% 30.08 in 10.0 mi Variable 3.5 mph - N/A   Overcast
5:53 AM 17.1 °F 11.7 °F 7.0 °F 65% 30.27 in 10.0 mi ENE 3.5 mph - N/A   Overcast
6:53 AM 17.1 °F 8.7 °F 6.1 °F 62% 30.27 in 10.0 mi NW 5.8 mph - N/A   Overcast
7:53 AM 16.0 °F 5.3 °F 6.1 °F 65% 30.30 in 10.0 mi North 8.1 mph - N/A   Overcast
8:53 AM 17.1 °F 8.7 °F 5.0 °F 59% 30.34 in 8.0 mi NNW 5.8 mph - N/A   Mostly Cloudy
9:53 AM 19.0 °F 7.5 °F 5.0 °F 54% 30.33 in 10.0 mi NNE 10.4 mph - N/A   Overcast
11:53 AM 19.0 °F - 8.1 °F 62% 30.35 in 10.0 mi Calm Calm - N/A   Overcast
12:53 PM 21.0 °F 12.4 °F 9.0 °F 60% 30.38 in 10.0 mi East 6.9 mph - N/A   Mostly Cloudy
1:53 PM 21.9 °F - 7.0 °F 53% 30.36 in 10.0 mi Calm Calm - N/A   Scattered Clouds
2:53 PM 23.0 °F 17.0 °F 7.0 °F 50% 30.34 in 10.0 mi Variable 4.6 mph - N/A   Clear
3:53 PM 24.1 °F - 7.0 °F 48% 30.33 in 10.0 mi Calm Calm - N/A   Clear
4:53 PM 25.0 °F 14.2 °F 8.1 °F 49% 30.30 in 10.0 mi ESE 11.5 mph - N/A   Clear
5:53 PM 23.0 °F 12.4 °F 8.1 °F 53% 30.32 in 10.0 mi SSE 10.4 mph - N/A   Clear
6:53 PM 23.0 °F 13.1 °F 6.1 °F 48% 30.32 in 10.0 mi ESE 9.2 mph - N/A   Mostly Cloudy
7:53 PM 19.9 °F 7.3 °F 7.0 °F 57% 30.35 in 10.0 mi SSE 12.7 mph - N/A   Scattered Clouds
8:53 PM 18.0 °F 5.4 °F 7.0 °F 62% 30.33 in 10.0 mi South 11.5 mph - N/A   Clear
9:53 PM 15.1 °F 6.4 °F 6.1 °F 68% 30.33 in 10.0 mi SSE 5.8 mph - N/A   Clear
10:53 PM 14.0 °F - 6.1 °F 71% 30.33 in 10.0 mi Calm Calm - N/A   Clear